Terminal Aerodrome Forecast
Issued by NWS

Home | Current Version | Previous Version | Text Only | Print | Product List | Glossary On
Versions: 1 2 3 4 5 6 7 8 9 10 11 12 13 14 15 16
000
FTUS41 KGYX 200521
TAFRKD
TAF
KRKD 200521Z 2006/2106 21005KT P6SM FEW250
     FM201300 22011G20KT P6SM BKN250
     FM210100 22008KT 4SM BR BKN007
      AMD LTD TO CLD VIS AND WIND=

USA.gov is the U.S. government's official web portal to all federal, state and local government web resources and services.